Retour au catalogue

KUIPER-00533

ActifCommunicationsLEO
NORAD 69605·PAYLOAD·🇺🇸 United States

Lancé Jun 17, 2026 depuis Guiana Space Centre

Loading…

Prochains Passages (prochaines 24 heures)

TLE

FraisSource: CelesTrak SupGP

Époque: Sep 14, 2026, 23:22 UTC

1 69605C 26140P   26257.97370370  .00001419  00000+0  18579-3 0  2571
2 69605  51.9019 336.1422 0000419  81.0250 319.4323 14.79920334    12

Suivez KUIPER-00533 en temps réel avec AllMySat

Download on the App Store